Location: Lac Lasalle
(46.0398°N, 74.1576°W)
Time: 14:12:38
(UTC-05:00)

AO-73 - Pass Details

Date: 18 December 2019
Orbit: 582 x 664 km, 97.6° (Epoch: 28 January)

Event Time Altitude Azimuth Distance (km) Brightness Sun altitude
Rises 05:23:56 0° 27° (NNE) 2,833 ? -21.5°
Reaches altitude 10° 05:26:37 10° 45° (NE) 1,917 ? -21.0°
Maximum altitude 05:29:40 20° 92° (E) 1,386 ? -20.5°
Drops below altitude 10° 05:32:41 10° 140° (SE) 1,896 ? -20.0°
Sets 05:35:19 0° 157° (SSE) 2,790 ? -19.6°
